Weather History for Milan, Italy

Change the Weather History Date:

Tuesday, December 3, 2013

  Actual Average Record
Temperature  
Mean Temperature 37 °F -  
Max Temperature 51 °F 44 °F 104 °F (2007)
Min Temperature 23 °F 26 °F 23 °F (1999)
Degree Days  
Heating Degree Days 28    
Moisture  
Dew Point 26 °F    
Average Humidity 73    
Maximum Humidity 93    
Minimum Humidity 38    
Precipitation  
Precipitation 0.00 in 0.07 in - ()
Sea Level Pressure  
Sea Level Pressure 30.39 in    
Wind  
Wind Speed 4 mph ()    
Max Wind Speed 8 mph    
Max Gust Speed -    
Averages and records for this station are not official NWS values.
T = Trace of Precipitation, MM = Missing Value Source: Averaged Metar Reports

Daily Weather History Graph

Daily Weather History Graph

Search for Another Location

Airport:

Trip Planner

Search our weather history database for the weather conditions in past years. The results will help you decide how hot, cold, wet, or windy it might be!

Date:

Astronomy

Dec. 03, 2013 Rise Set
Actual Time 7:47 AM CET 4:42 PM CET
Civil Twilight 7:13 AM CET 5:15 PM CET
Nautical Twilight 6:36 AM CET 5:53 PM CET
Astronomical Twilight 6:00 AM CET 6:28 PM CET
Moon 7:58 AM CET (12/3) 5:29 PM CET (12/3)
Length of Visible Light 10h 02m
Length of Day
8h 54m
New Moon, 0% of the Moon is Illuminated
Dec 3
New Moon
Dec 9
First Quarter
Dec 17
Full
Dec 25
Last Quarter
Jan 1
New

Hourly Weather History & Observations

Time (CET) Temp. Windchill Dew Point Humidity Pressure Visibility Wind Dir Wind Speed Gust Speed Precip Events Conditions
12:20 AM 28.4 °F 21.2 °F 24.8 °F 86% 30.45 in - North 6.9 mph - N/A   Clear
12:50 AM 28.4 °F 22.2 °F 24.8 °F 86% 30.45 in - North 5.8 mph - N/A   Clear
1:20 AM 28.4 °F 20.4 °F 24.8 °F 86% 30.45 in - North 8.1 mph - N/A   Clear
1:50 AM 28.4 °F 23.3 °F 23.0 °F 80% 30.45 in - North 4.6 mph - N/A   Clear
2:20 AM 26.6 °F 20.0 °F 23.0 °F 86% 30.48 in - North 5.8 mph - N/A   Clear
2:50 AM 24.8 °F 20.5 °F 21.2 °F 86% 30.48 in - North 3.5 mph - N/A   Clear
3:20 AM 28.4 °F 21.2 °F 24.8 °F 86% 30.45 in - North 6.9 mph - N/A   Clear
3:50 AM 26.6 °F 20.0 °F 23.0 °F 86% 30.45 in - North 5.8 mph - N/A   Clear
6:20 AM 23.0 °F 15.8 °F 21.2 °F 93% 30.42 in - North 5.8 mph - N/A   Clear
6:50 AM 26.6 °F 19.1 °F 24.8 °F 93% 30.42 in - North 6.9 mph - N/A   Clear
7:20 AM 28.4 °F 22.2 °F 24.8 °F 86% 30.42 in - NNW 5.8 mph - N/A   Clear
7:50 AM 26.6 °F 20.0 °F 24.8 °F 93% 30.42 in - North 5.8 mph - N/A   Clear
8:20 AM 28.4 °F 22.2 °F 26.6 °F 93% 30.39 in - North 5.8 mph - N/A   Clear
8:50 AM 32.0 °F 26.4 °F 26.6 °F 80% 30.39 in - North 5.8 mph - N/A   Clear
9:20 AM 35.6 °F 32.8 °F 30.2 °F 81% 30.42 in - NNW 3.5 mph - N/A   Clear
9:50 AM 39.2 °F - 32.0 °F 75% 30.42 in - Variable 1.2 mph - N/A   Clear
10:20 AM 42.8 °F - 30.2 °F 61% 30.42 in - Variable 1.2 mph - N/A   Clear
10:50 AM 44.6 °F - 28.4 °F 53% 30.42 in - Variable 2.3 mph - N/A   Clear
11:20 AM 46.4 °F - 28.4 °F 50% 30.39 in - South 2.3 mph - N/A   Clear
11:50 AM 46.4 °F - 28.4 °F 50% 30.39 in - Variable 2.3 mph - N/A   Clear
12:20 PM 48.2 °F - 26.6 °F 43% 30.39 in - Variable 2.3 mph - N/A   Clear
12:50 PM 48.2 °F - 28.4 °F 46% 30.36 in - Variable 2.3 mph - N/A   Clear
1:20 PM 48.2 °F - 28.4 °F 46% 30.36 in - Variable 2.3 mph - N/A   Clear
1:50 PM 50.0 °F - 28.4 °F 43% 30.36 in - Calm Calm - N/A   Clear
2:20 PM 50.0 °F - 26.6 °F 40% 30.33 in - Variable 2.3 mph - N/A   Clear
2:50 PM 51.8 °F - 26.6 °F 38% 30.33 in - Variable 1.2 mph - N/A   Clear
3:20 PM 50.0 °F - 28.4 °F 43% 30.33 in - Calm Calm - N/A   Clear
3:50 PM 50.0 °F - 30.2 °F 47% 30.33 in - Variable 1.2 mph - N/A   Clear
4:20 PM 46.4 °F 45.2 °F 30.2 °F 53% 30.33 in - SSW 3.5 mph - N/A   Clear
4:50 PM 42.8 °F 40.1 °F 30.2 °F 61% 30.33 in - WSW 4.6 mph - N/A   Clear
5:20 PM 39.2 °F - 30.2 °F 70% 30.33 in - Variable 1.2 mph - N/A   Clear
5:50 PM 32.0 °F - 26.6 °F 80% 30.33 in - Variable 1.2 mph - N/A   Clear
6:20 PM 32.0 °F - 24.8 °F 75% 30.36 in - Variable 2.3 mph - N/A   Clear
6:50 PM 28.4 °F - 24.8 °F 86% 30.36 in - Variable 2.3 mph - N/A   Clear
7:20 PM 28.4 °F - 24.8 °F 86% 30.36 in - North 2.3 mph - N/A   Clear
7:50 PM 30.2 °F 25.4 °F 26.6 °F 86% 30.36 in - North 4.6 mph - N/A   Clear
8:20 PM 30.2 °F 24.3 °F 28.4 °F 93% 30.36 in - North 5.8 mph - N/A   Clear
8:50 PM 28.4 °F 22.2 °F 24.8 °F 86% 30.36 in - North 5.8 mph - N/A   Clear
9:20 PM 26.6 °F - 23.0 °F 86% 30.36 in - Variable 2.3 mph - N/A   Clear
9:50 PM 26.6 °F 21.2 °F 23.0 °F 86% 30.36 in - North 4.6 mph - N/A   Clear
10:20 PM 28.4 °F 23.3 °F 24.8 °F 86% 30.36 in - North 4.6 mph - N/A   Clear
10:50 PM 32.0 °F 26.4 °F 26.6 °F 80% 30.36 in - North 5.8 mph - N/A   Clear
11:20 PM 26.6 °F 20.0 °F 23.0 °F 86% 30.36 in - North 5.8 mph - N/A   Clear
11:50 PM 23.0 °F 17.0 °F 19.4 °F 86% 30.36 in - North 4.6 mph - N/A   Clear